sat.trackr.live / text

‹ back to catalog

KUIPER-00236

NORAD 68582 · 2026-072K

PAYLOAD ACTIVE UNKNOWN

§ Identity

Operator
Country
US
Launch date
2026-04-04
Launch site
AFETR
Launch vehicle
Mass (kg)
RCS (m²)

External: N2YO · Heavens-Above · Gunter

§ Orbital elements

Epoch: 2026-05-25T02:58:39.439776Z

Period
93.70 min
Inclination
51.8777°
Eccentricity
0.0002414
Mean motion
15.36826594 rev/d
Perigee alt
453.9 km
Apogee alt
457.2 km
Semi-major
6,833.6 km
B*
7.5508e-4
RAAN
288.3593°
Arg perigee
264.7936°
Mean anomaly
95.2775°
Rev number
783

§ Raw data

KUIPER-002361 68582U 26072K   26145.12406759  .00027313  00000+0  75508-3 0  99912 68582  51.8777 288.3593 0002414 264.7936  95.2775 15.36826594  7834

JSON: /api/v1/satellites/68582 · /tle

For live sub-satellite position, see the globe view (requires WebGL).

§ Visibility from observer

Set your observer location to see the next 7 days of passes ≥ 10°. The values pass through the URL so the page stays shareable.

No JS? Fill the form by hand. The geolocation button needs JavaScript.